Location: Ashtead
(51.3000°N, 0.3000°W)
Time: 11:17:27
(UTC+00:00)

H-2A R/B - Pass Details

Date: 26 September 2023
Orbit: 731 x 835 km, 98.2° (Epoch: 28 November)

Event Time Altitude Azimuth Distance (km) Brightness Sun altitude
Rises 04:26:53 0° 19° (NNE) 3,385 5.9 -14.1°
Reaches altitude 10° 04:29:24 10° 27° (NNE) 2,454 5.2 -13.8°
Maximum altitude 04:34:31 39° 96° (E) 1,228 3.7 -13.0°
Drops below altitude 10° 04:39:35 10° 165° (SSE) 2,439 4.6 -12.2°
Sets 04:42:05 0° 173° (S) 3,362 5.3 -11.8°
